Aérodrome :
LOGIN :

S'inscrire | Disclaimer

   EN    FR    IT 

 










Légende :    VFR   VFR Marginal   IFR   IFR Intensif   IFR Très Intensif
Visi : 
Plafond : 
>= 8 km
>= 3000ft
5 à 8 km
1000 à 3000 ft
1500m à 5 km
500 à 1000 ft
800 à 1500m
200 à 500 ft
< 800m
< 200 ft
Symboles :   Orages  Brouillard  Fortes neiges  Fortes précipitations  Vent > 20 kt
SIGMETs :   Divers  Orages  Givrage  Turbulence  Onde Orograph.  Cendres Volcan.







- Altitude de l'aérodrome : 245 ft


ETHS - Fassberg

DERNIER METAR :
  • 221420Z 08009KT 9999 SCT030 SCT060 03/M05 Q1025 BLU+

METARs EXPIRÉS :
  • 221320Z 08010KT 9999 SCT025 SCT240 02/M06 Q1026 BLU+BLU+
  • 221220Z 12008KT 9999 FEW025 SCT060 02/M05 Q1026 BLU+BLU+

TAF TAF ETHS
Valide du 22 à 12h jusqu'au 22 à 22h UTC


221115Z 2212/2222 08005KT 9000 NSW FEW012 BKN035
BECMG 2217/2219 07003KT 6000 NSW SCT020
Pas de NOTAMs connus pour ce terrain.



MET'MAP, la Météo Aéronautique d'un coup d'oeil ! - Copyright ORBIFLY Décembre 2007 - Disclaimer

ORBIFLY MET'MAP TEAM :

Programmation & Développement : Alexandra Zaïnal
Conception & Développement : Baudouin d'Aumeries
Co-Programmation & Développement : Marc-Olivier Méhu
Soutien technique & logistique : Manuel Goepfert

Contact : metmap@orbifly.com




SOURCES & CREDITS :

   NOAA